sat.trackr.live / text

‹ back to catalog

STARLINK-11259 [DTC]

NORAD 60721 · 2024-152B

PAYLOAD ACTIVE UNKNOWN

§ Identity

Operator
Country
US
Launch date
2024-08-28
Launch site
AFETR
Launch vehicle
Mass (kg)
RCS (m²)

Purposes: comms

External: N2YO · Heavens-Above · Gunter

§ Orbital elements

Epoch: 2026-05-25T04:04:48.297216Z

Period
91.74 min
Inclination
53.1588°
Eccentricity
0.0001019
Mean motion
15.69707488 rev/d
Perigee alt
359.0 km
Apogee alt
360.4 km
Semi-major
6,737.9 km
B*
8.7825e-6
RAAN
99.4967°
Arg perigee
68.2603°
Mean anomaly
291.8523°
Rev number
10,084

§ Raw data

STARLINK-11259 [DTC]1 60721U 24152B   26145.17000344  .00000475  00000+0  87825-5 0  99972 60721  53.1588  99.4967 0001019  68.2603 291.8523 15.69707488100846

JSON: /api/v1/satellites/60721 · /tle

For live sub-satellite position, see the globe view (requires WebGL).

§ Visibility from observer

Set your observer location to see the next 7 days of passes ≥ 10°. The values pass through the URL so the page stays shareable.

No JS? Fill the form by hand. The geolocation button needs JavaScript.